Regional Weather Roundup
Issued by NWS

Home | Current Version | Previous Version | Graphics & Text | Print | Product List | Glossary On
Versions: 1 2 3 4 5 6 7 8 9 10 11 12 13 14 15 16 17 18 19 20 21 22 23 24 25 26 27 28 29 30 31 32 33 34 35 36 37 38 39 40 41 42 43 44 45 46 47 48 49 50
000
ASUS45 KABQ 311510
RWRNM
NEW MEXICO REGIONAL WEATHER ROUNDUP
NATIONAL WEATHER SERVICE ALBUQUERQUE NM
900 AM MDT TUE MAY 31 2016

NOTE: "FAIR" MEANS FEW OR NO CLOUDS BELOW 12,000 FEET AGL WITH NO
       SIGNIFICANT WEATHER OR OBSTRUCTIONS TO VISION.

      THIS PRODUCT IS RELEASED AS TWO VERSIONS.  ONE VERSION NEAR
      THE TOP OF THE HOUR CONTAINING PRELIMINARY DATA FROM ALBUQUERQUE
      AND OTHER STATIONS.  A FINAL VERSION WITH ADDITIONAL DATA IS
      ISSUED ABOUT 10 MINUTES AFTER THE HOUR.

NMZ501-503-504-510>518-311600-
NORTHWEST PLATEAU/NORTHCENTRAL MOUNTAINS

CITY           SKY/WX    TMP DP  RH WIND       PRES   REMARKS
FARMINGTON     FAIR      60  27  28 NE3       30.04S
LOS ALAMOS     FAIR      62  30  29 E8        30.15S
SANTA FE       FAIR      64  31  28 CALM      30.10S
TAOS           FAIR      61  32  33 NW6       30.15S
ANGEL FIRE     FAIR      55  36  49 N7        30.22F

$$
NMZ402-403-502-505>509-311600-
WESTCENTRAL MOUNTAINS/SOUTHWEST MOUNTAINS

CITY           SKY/WX    TMP DP  RH WIND       PRES   REMARKS
GALLUP         FAIR      59  28  30 VRB3      30.10S
GRANTS         FAIR      58  24  26 E3        30.12S
SILVER CITY      N/A     66  48  52 E5        30.08R

$$
NMZ407-409-411-412-311600-
SOUTHERN DESERTS

CITY           SKY/WX    TMP DP  RH WIND       PRES   REMARKS
LORDSBURG      FAIR      66  46  48 SE7       30.00R
DEMING         FAIR      68  54  60 N5        30.00R
LAS CRUCES     FAIR      68  54  60 S7        30.03R
HOLLOMAN AFB   FAIR      71  50  48 S6        30.00R
ALAMOGORDO     FAIR      70  48  46 CALM      30.02S
T OR C         FAIR      67  51  56 S13       30.02S

$$
NMZ519>523-311600-
CENTRAL VALLEYS/CENTRAL HIGHLANDS

CITY           SKY/WX    TMP DP  RH WIND       PRES   REMARKS
ALBUQUERQUE    PTSUNNY   68  43  40 W9        30.04S
DOUBLE EAGLE   MOSUNNY   66  43  42 SE8       30.08R
MORIARTY ARPT  FAIR      64  40  41 SE6       30.11S
CLINES CORNERS PTSUNNY   59  36  42 E5        30.12R
BELEN          FAIR      68  45  44 S14       30.04R
SOCORRO        FAIR      66  49  53 SE13      30.04R

$$
NMZ524>526-539-540-311600-
SOUTHCENTRAL MOUNTAINS

CITY           SKY/WX    TMP DP  RH WIND       PRES   REMARKS
RUIDOSO          N/A     61  41  48 CALM      30.14S

$$
NMZ527>531-311600-
NORTHEAST HIGHLANDS/NORTHEAST PLAINS

CITY           SKY/WX    TMP DP  RH WIND       PRES   REMARKS
LAS VEGAS      FAIR      59  36  42 N15       30.13R
RATON          FAIR      61  41  47 NE15      30.13R
CLAYTON        PTSUNNY   61  53  75 NE23G29   30.08R

$$
NMZ532>537-311600-
EASTCENTRAL PLAINS

CITY           SKY/WX    TMP DP  RH WIND       PRES   REMARKS
TUCUMCARI      FAIR      65  53  65 NE7       30.00R
CANNON AFB     CLOUDY    64  54  71 VRB2      30.00R
CLOVIS AIRPORT FAIR      64  52  63 W6        30.01R

$$
NMZ028-029-538-311600-
SOUTHEAST PLAINS

CITY           SKY/WX    TMP DP  RH WIND       PRES   REMARKS
ROSWELL        FAIR      70  51  51 N6        29.97R
ARTESIA        FAIR      68  59  73 S6        29.97R
CARLSBAD       FAIR      70  58  65 SW7       29.95R
HOBBS          SUNNY     68  55  64 SW13      29.98S


$$




USA.gov is the U.S. government's official web portal to all federal, state and local government web resources and services.